Regional Weather Roundup
Issued by NWS

Home | Current Version | Previous Version | Text Only | Print | Product List | Glossary On
Versions: 1 2 3 4 5 6 7 8 9 10 11 12 13 14 15 16 17 18 19 20 21 22 23 24 25 26 27 28 29 30 31 32 33 34 35 36 37 38 39 40 41 42 43 44 45 46 47 48 49 50
000
ASUS43 KOAX 242110
RWRNE

WEATHER ROUNDUP FOR NEBRASKA
NATIONAL WEATHER SERVICE OMAHA NE
300 PM CST FRI FEB 24 2017

NOTES: SATELLITE DATA IS BEING USED TO AUGMENT CLOUD COVER ABOVE
       12000 FEET.
       "FAIR" INDICATES FEW OR NO CLOUDS BELOW 12,000 FEET WITH NO
       SIGNIFICANT WEATHER AND/OR OBSTRUCTIONS TO VISIBILITY.

  * THESE STATIONS DO NOT REPORT WEATHER SUCH AS RAIN...SNOW OR FOG.

NEZ001>004-019>022-054>056-242200-
NEBRASKA PANHANDLE

CITY           SKY/WX    TMP DP  RH WIND       PRES   REMARKS
SCOTTSBLUFF    LGT SNOW  23  17  78 S3        30.03S
ALLIANCE       CLOUDY    21  16  81 N7        30.01S WCI  12
CHADRON        CLOUDY    21  15  78 NW5       30.07S WCI  15
KIMBALL        LGT SNOW  22  17  79 CALM      29.98S
SIDNEY         CLOUDY    23  15  71 N6        30.00S WCI  16
$$

NEZ057>060-069>072-079>082-242200-
SOUTHWEST NEBRASKA

CITY           SKY/WX    TMP DP  RH WIND       PRES   REMARKS
NORTH PLATTE   CLOUDY    24  12  60 N15       30.03S WCI  11
IMPERIAL       CLOUDY    26  16  65 N18       30.01S WCI  13
LEXINGTON      CLOUDY    26  15  62 N22       30.01R WCI  11
MCCOOK         MOSUNNY   27  16  63 N22       30.02R WCI  13
OGALLALA       CLOUDY    27  17  66 N10       30.03R WCI  17
$$

NEZ005>010-023>029-035>040-094-242200-
NORTH CENTRAL NEBRASKA

CITY           SKY/WX    TMP DP  RH WIND       PRES   REMARKS
VALENTINE      CLOUDY    23  12  62 NW12      30.07R WCI  12
AINSWORTH      CLOUDY    23  16  75 NW16      30.04R WCI   9
BROKEN BOW     PTSUNNY   23  14  68 N22       30.00R WCI   8
O`NEILL        PTSUNNY   25  18  74 NW24      30.00S WCI   9
ORD            PTSUNNY   24  14  65 N26G36    29.99R WCI   8
THEDFORD       CLOUDY    22  14  72 N16       30.04R WCI   8
$$

NEZ041-046>049-061>064-073>077-083>087-242200-
SOUTH CENTRAL NEBRASKA

CITY           SKY/WX    TMP DP  RH WIND       PRES   REMARKS
GRAND ISLAND   CLOUDY    24  16  71 N26G33    29.98R WCI   8
AURORA         CLOUDY    24  19  80 N21G29    29.96S WCI   9
HASTINGS       CLOUDY    24  16  71 N29       29.97S WCI   7
HEBRON         CLOUDY    25  21  84 NW17G30   29.93R FOG     WCI  12
HOLDREGE       PTSUNNY   25  16  68 N16G25    29.98R WCI  12
KEARNEY *      CLOUDY    25  14  63 N17       29.99R WCI  11
YORK           LGT RAIN  23  18  80 N17G23    29.94R WCI   9
$$

NEZ011>018-030>034-042>045-242200-
NORTHEAST NEBRASKA

CITY           SKY/WX    TMP DP  RH WIND       PRES   REMARKS
NORFOLK        MIX PCPN  24  15  68 N18G35    29.93R WCI  10
ALBION         PTSUNNY   26  14  62 N20G30    29.96R WCI  12
BLAIR          LGT SNOW  25  22  88 NW18G24   29.85R WCI  11
FREMONT        LGT SNOW  24  21  87 NW18G26   29.90R WCI  10
TEKAMAH        CLOUDY    24  20  84 NW22      29.89R FOG     WCI   9
WAYNE          CLOUDY    25  17  72 N24       29.92R HAZE    WCI   9
$$

NEZ050>053-065>068-078-088>093-242200-
SOUTHEAST NEBRASKA

CITY           SKY/WX    TMP DP  RH WIND       PRES   REMARKS
LINCOLN        LGT SNOW  25  21  85 N26       29.91R VSB 1   WCI   9
OMAHA EPPLEY   LGT SNOW  25  20  81 NW23      29.87R VSB 3/4 WCI  10
BEATRICE       LGT SNOW  26  22  87 N26G32    29.91R WCI  10
FALLS CITY     LGT SNOW  28  24  85 N18G26    29.83R VSB 1   WCI  15
NEBRASKA CITY  LGT SNOW  26  23  89 N16G22    29.85R VSB 1   WCI  13
PLATTSMOUTH    LGT SNOW  26  21  82 NW20G25   29.85R WCI  12
$$

NEZ044-045-051>053-067-242200-
OMAHA AREA

CITY           SKY/WX    TMP DP  RH WIND       PRES   REMARKS
OMAHA EPPLEY   LGT SNOW  25  20  81 NW23      29.87R VSB 3/4 WCI  10
BLAIR          LGT SNOW  25  22  88 NW18G24   29.85R WCI  11
FREMONT        LGT SNOW  24  21  87 NW18G26   29.90R WCI  10
MILLARD        LGT SNOW  27  22  82 NW18G24   29.88R WCI  14
OFFUTT AFB     LGT SNOW  25  20  80 NW10      29.86R WCI  15
PLATTSMOUTH    LGT SNOW  26  21  82 NW20G25   29.85R WCI  12
WAHOO          CLOUDY    24  20  85 NW24G32   29.89R WCI   8
$$




USA.gov is the U.S. government's official web portal to all federal, state and local government web resources and services.